FJIUR DTTJ-DTTA

Flight info

Callsign FJIUR
Flight time 1h 19m
Altitude 8000
Route DTTJ GABES SFAX MONASTIR ENFIDHA DTTA
Aircraft DA62/L-SDE2E3FGHIRWXY/LB1

Departure

Time 2026-04-16 13:06
Airport Djerba Zarzis International Airport (DTTJ)

Arrival

Time 2026-04-16 14:25
Airport Tunis Carthage International Airport (DTTA)
Time Latitude Longitude Altitude Speed Heading
2026-04-16 12:55 33.87282 10.78343 21 ft 0 kts 270°
2026-04-16 12:58 33.87283 10.78342 21 ft 1 kts 271°
2026-04-16 12:58 33.87283 10.78340 21 ft 0 kts 271°
2026-04-16 13:00 33.87324 10.78238 21 ft 18 kts 263°
2026-04-16 13:00 33.87371 10.78121 21 ft 15 kts 308°
2026-04-16 13:00 33.87392 10.77952 21 ft 24 kts 269°
2026-04-16 13:00 33.87390 10.77833 21 ft 21 kts 268°
2026-04-16 13:01 33.87388 10.77779 21 ft 19 kts 268°
2026-04-16 13:01 33.87387 10.77723 21 ft 18 kts 268°
2026-04-16 13:02 33.87384 10.77643 21 ft 17 kts 268°
2026-04-16 13:02 33.87379 10.77514 21 ft 14 kts 267°
2026-04-16 13:02 33.87380 10.77402 21 ft 12 kts 270°
2026-04-16 13:02 33.87373 10.77299 21 ft 14 kts 257°
2026-04-16 13:03 33.87355 10.77189 21 ft 12 kts 265°
2026-04-16 13:03 33.87358 10.77091 21 ft 12 kts 272°
2026-04-16 13:03 33.87359 10.76965 21 ft 23 kts 270°
2026-04-16 13:03 33.87353 10.76749 16 ft 24 kts 266°
2026-04-16 13:04 33.87348 10.76565 15 ft 20 kts 268°
2026-04-16 13:04 33.87346 10.76462 16 ft 17 kts 269°
2026-04-16 13:04 33.87341 10.76286 14 ft 34 kts 268°
2026-04-16 13:04 33.87403 10.76052 13 ft 27 kts 359°
2026-04-16 13:05 33.87508 10.76154 17 ft 34 kts 85°
2026-04-16 13:05 33.87519 10.76697 15 ft 92 kts 90°
2026-04-16 13:05 33.87514 10.77583 117 ft 116 kts 90°
2026-04-16 13:05 33.87520 10.78472 533 ft 107 kts 89°
2026-04-16 13:06 33.87829 10.79224 907 ft 107 kts 17°
2026-04-16 13:06 33.88344 10.78698 1084 ft 122 kts 265°
2026-04-16 13:06 33.87998 10.77750 1446 ft 120 kts 239°
2026-04-16 13:06 33.87637 10.76859 1844 ft 121 kts 262°
2026-04-16 13:07 33.88005 10.76046 2228 ft 121 kts 342°
2026-04-16 13:07 33.88862 10.76216 2449 ft 139 kts 23°
2026-04-16 13:07 33.89689 10.76719 2827 ft 125 kts 27°
2026-04-16 13:07 33.90444 10.77209 3044 ft 129 kts 28°
2026-04-16 13:08 33.91240 10.77734 3131 ft 131 kts 25°
2026-04-16 13:08 33.92135 10.77936 3164 ft 134 kts 353°
2026-04-16 13:08 33.93033 10.77686 3297 ft 129 kts 342°
2026-04-16 13:08 33.93869 10.77328 3454 ft 129 kts 336°
2026-04-16 13:09 33.94685 10.76869 3666 ft 128 kts 331°
2026-04-16 13:09 33.95436 10.76344 4000 ft 123 kts 326°
2026-04-16 13:09 33.96149 10.75733 4101 ft 129 kts 321°
2026-04-16 13:09 33.96857 10.75020 4178 ft 132 kts 317°
2026-04-16 13:10 33.97520 10.74296 4311 ft 129 kts 319°
2026-04-16 13:10 33.98255 10.73625 4336 ft 134 kts 324°
2026-04-16 13:10 33.98999 10.72988 4478 ft 129 kts 323°
2026-04-16 13:10 33.99726 10.72332 4558 ft 132 kts 327°
2026-04-16 13:11 34.00375 10.71638 4819 ft 116 kts 326°
2026-04-16 13:11 34.00968 10.70987 5019 ft 117 kts 327°
2026-04-16 13:11 34.01638 10.70436 5199 ft 116 kts 340°
2026-04-16 13:11 34.02332 10.69993 5523 ft 109 kts 338°
2026-04-16 13:12 34.02996 10.69518 5710 ft 115 kts 336°
2026-04-16 13:12 34.03707 10.69018 5866 ft 121 kts 337°
2026-04-16 13:12 34.04430 10.68510 6066 ft 118 kts 337°
2026-04-16 13:12 34.05144 10.68007 6210 ft 120 kts 337°
2026-04-16 13:13 34.05856 10.67503 6423 ft 116 kts 337°
2026-04-16 13:13 34.06523 10.67024 6655 ft 111 kts 337°
2026-04-16 13:13 34.07182 10.66577 6894 ft 105 kts 346°
2026-04-16 13:13 34.07874 10.66356 7128 ft 101 kts 354°
2026-04-16 13:14 34.08558 10.66269 7368 ft 98 kts 359°
2026-04-16 13:14 34.09233 10.66194 7611 ft 96 kts 359°
2026-04-16 13:14 34.09898 10.66119 7855 ft 95 kts 359°
2026-04-16 13:14 34.10570 10.66043 8023 ft 103 kts 359°
2026-04-16 13:15 34.11337 10.65967 8037 ft 117 kts 359°
2026-04-16 13:15 34.12186 10.65891 8035 ft 127 kts 359°
2026-04-16 13:15 34.13095 10.65811 8038 ft 133 kts 357°
2026-04-16 13:15 34.14024 10.65590 8013 ft 140 kts 349°
2026-04-16 13:16 34.14965 10.65259 8009 ft 141 kts 348°
2026-04-16 13:16 34.15905 10.64922 8027 ft 141 kts 348°
2026-04-16 13:16 34.16846 10.64583 8031 ft 141 kts 348°
2026-04-16 13:16 34.17790 10.64244 8030 ft 142 kts 348°
2026-04-16 13:17 34.18736 10.63905 8032 ft 142 kts 348°
2026-04-16 13:17 34.19685 10.63567 8033 ft 142 kts 348°
2026-04-16 13:17 34.20621 10.63234 8035 ft 142 kts 348°
2026-04-16 13:17 34.21568 10.62897 8032 ft 142 kts 348°
2026-04-16 13:18 34.22528 10.62554 8030 ft 142 kts 348°
2026-04-16 13:18 34.23467 10.62220 8028 ft 142 kts 348°
2026-04-16 13:18 34.24420 10.61882 8028 ft 143 kts 348°
2026-04-16 13:18 34.25379 10.61544 8030 ft 143 kts 348°
2026-04-16 13:19 34.26337 10.61206 8029 ft 143 kts 348°
2026-04-16 13:19 34.27295 10.60867 8028 ft 144 kts 348°
2026-04-16 13:19 34.28254 10.60526 8028 ft 144 kts 348°
2026-04-16 13:19 34.29218 10.60181 8027 ft 144 kts 348°
2026-04-16 13:20 34.30178 10.59838 8028 ft 144 kts 348°
2026-04-16 13:20 34.31136 10.59495 8027 ft 143 kts 348°
2026-04-16 13:20 34.32095 10.59155 8027 ft 143 kts 348°
2026-04-16 13:20 34.33034 10.58824 8026 ft 142 kts 349°
2026-04-16 13:21 34.33998 10.58578 8023 ft 142 kts 353°
2026-04-16 13:21 34.34966 10.58355 8023 ft 142 kts 353°
2026-04-16 13:21 34.35935 10.58132 8024 ft 142 kts 353°
2026-04-16 13:21 34.36900 10.57910 8023 ft 142 kts 353°
2026-04-16 13:22 34.37869 10.57685 8066 ft 139 kts 353°
2026-04-16 13:22 34.38799 10.57466 8141 ft 137 kts 353°
2026-04-16 13:22 34.39727 10.57243 8210 ft 137 kts 353°
2026-04-16 13:22 34.40671 10.57019 8290 ft 139 kts 353°
2026-04-16 13:23 34.41625 10.56793 8368 ft 140 kts 353°
2026-04-16 13:23 34.42583 10.56568 8442 ft 140 kts 353°
2026-04-16 13:23 34.43545 10.56340 8521 ft 141 kts 353°
2026-04-16 13:23 34.44509 10.56111 8588 ft 141 kts 353°
2026-04-16 13:24 34.45490 10.55878 8779 ft 144 kts 353°
2026-04-16 13:24 34.46474 10.55643 9014 ft 144 kts 353°
2026-04-16 13:24 34.47455 10.55406 9246 ft 144 kts 353°
2026-04-16 13:24 34.48438 10.55164 9482 ft 144 kts 353°
2026-04-16 13:25 34.49423 10.54919 9718 ft 144 kts 353°
2026-04-16 13:25 34.50409 10.54672 9946 ft 145 kts 353°
2026-04-16 13:25 34.51422 10.54420 10019 ft 155 kts 353°
2026-04-16 13:25 34.52489 10.54158 10007 ft 159 kts 353°
2026-04-16 13:26 34.53558 10.53893 10004 ft 156 kts 353°
2026-04-16 13:26 34.54623 10.53629 10005 ft 157 kts 353°
2026-04-16 13:26 34.55694 10.53367 10003 ft 157 kts 353°
2026-04-16 13:26 34.56767 10.53105 10001 ft 158 kts 353°
2026-04-16 13:27 34.57847 10.52840 10005 ft 158 kts 353°
2026-04-16 13:27 34.58925 10.52576 10004 ft 158 kts 353°
2026-04-16 13:27 34.60006 10.52311 10005 ft 158 kts 353°
2026-04-16 13:27 34.61086 10.52045 10000 ft 159 kts 353°
2026-04-16 13:28 34.62165 10.51776 10006 ft 158 kts 353°
2026-04-16 13:28 34.63247 10.51506 10007 ft 158 kts 353°
2026-04-16 13:28 34.64325 10.51237 10002 ft 158 kts 353°
2026-04-16 13:28 34.65406 10.50966 10004 ft 158 kts 353°
2026-04-16 13:29 34.66466 10.50701 9994 ft 157 kts 353°
2026-04-16 13:29 34.67538 10.50427 10003 ft 158 kts 353°
2026-04-16 13:29 34.68615 10.50150 10001 ft 158 kts 353°
2026-04-16 13:29 34.69689 10.49876 10001 ft 158 kts 353°
2026-04-16 13:30 34.70767 10.49604 9994 ft 158 kts 353°
2026-04-16 13:30 34.71841 10.49334 10000 ft 157 kts 353°
2026-04-16 13:30 34.72913 10.49063 10002 ft 157 kts 353°
2026-04-16 13:30 34.73989 10.48792 10000 ft 158 kts 353°
2026-04-16 13:31 34.75066 10.48523 9997 ft 158 kts 353°
2026-04-16 13:31 34.76138 10.48258 9996 ft 157 kts 353°
2026-04-16 13:31 34.77211 10.47991 9997 ft 157 kts 353°
2026-04-16 13:31 34.78279 10.47721 9998 ft 157 kts 353°
2026-04-16 13:32 34.79338 10.47453 9996 ft 157 kts 353°
2026-04-16 13:32 34.80424 10.47179 9990 ft 157 kts 353°
2026-04-16 13:32 34.81481 10.46916 9999 ft 157 kts 353°
2026-04-16 13:32 34.82551 10.46649 9998 ft 157 kts 353°
2026-04-16 13:33 34.83622 10.46385 10000 ft 156 kts 353°
2026-04-16 13:33 34.84687 10.46125 9997 ft 156 kts 353°
2026-04-16 13:33 34.85750 10.45866 10000 ft 156 kts 353°
2026-04-16 13:33 34.86814 10.45606 9999 ft 156 kts 353°
2026-04-16 13:34 34.87879 10.45347 9998 ft 156 kts 353°
2026-04-16 13:34 34.88940 10.45088 9999 ft 156 kts 353°
2026-04-16 13:34 34.90005 10.44830 10002 ft 156 kts 353°
2026-04-16 13:34 34.91070 10.44570 9997 ft 156 kts 353°
2026-04-16 13:35 34.92135 10.44308 10001 ft 156 kts 353°
2026-04-16 13:35 34.93201 10.44044 10004 ft 156 kts 353°
2026-04-16 13:35 34.94270 10.43781 10000 ft 156 kts 353°
2026-04-16 13:35 34.95334 10.43520 10003 ft 156 kts 353°
2026-04-16 13:36 34.96393 10.43258 10033 ft 154 kts 353°
2026-04-16 13:36 34.97449 10.42996 10032 ft 155 kts 353°
2026-04-16 13:36 34.98504 10.42737 10033 ft 155 kts 353°
2026-04-16 13:36 34.99560 10.42477 10037 ft 155 kts 353°
2026-04-16 13:37 35.00600 10.42222 10039 ft 155 kts 353°
2026-04-16 13:37 35.01658 10.41963 10034 ft 155 kts 353°
2026-04-16 13:37 35.02720 10.41704 10040 ft 156 kts 353°
2026-04-16 13:37 35.03784 10.41468 10037 ft 154 kts 358°
2026-04-16 13:38 35.04853 10.41437 10038 ft 154 kts
2026-04-16 13:38 35.05927 10.41439 10036 ft 154 kts
2026-04-16 13:38 35.06995 10.41445 10038 ft 154 kts
2026-04-16 13:38 35.08069 10.41451 10038 ft 154 kts
2026-04-16 13:39 35.09140 10.41456 10042 ft 154 kts
2026-04-16 13:39 35.10213 10.41461 10041 ft 154 kts
2026-04-16 13:39 35.11288 10.41466 10040 ft 154 kts
2026-04-16 13:39 35.12361 10.41471 10046 ft 154 kts
2026-04-16 13:40 35.13437 10.41479 10042 ft 155 kts
2026-04-16 13:40 35.14511 10.41485 10042 ft 154 kts
2026-04-16 13:40 35.15585 10.41492 10042 ft 155 kts
2026-04-16 13:40 35.16662 10.41501 10048 ft 155 kts
2026-04-16 13:41 35.17743 10.41509 10043 ft 155 kts
2026-04-16 13:41 35.18819 10.41517 10043 ft 155 kts
2026-04-16 13:41 35.19894 10.41524 10046 ft 155 kts
2026-04-16 13:41 35.20969 10.41531 10046 ft 154 kts
2026-04-16 13:42 35.22041 10.41539 10046 ft 154 kts
2026-04-16 13:42 35.23098 10.41548 10048 ft 154 kts
2026-04-16 13:42 35.24169 10.41556 10049 ft 154 kts
2026-04-16 13:42 35.25240 10.41561 10050 ft 154 kts
2026-04-16 13:43 35.26312 10.41568 10051 ft 154 kts
2026-04-16 13:43 35.27385 10.41575 10048 ft 154 kts
2026-04-16 13:43 35.28456 10.41579 10047 ft 154 kts
2026-04-16 13:43 35.29531 10.41588 10050 ft 154 kts
2026-04-16 13:44 35.30604 10.41601 10052 ft 155 kts
2026-04-16 13:44 35.31682 10.41611 10049 ft 155 kts
2026-04-16 13:44 35.32758 10.41620 10051 ft 155 kts
2026-04-16 13:44 35.33833 10.41630 10054 ft 155 kts
2026-04-16 13:45 35.34914 10.41640 10048 ft 155 kts
2026-04-16 13:45 35.35992 10.41651 10052 ft 155 kts
2026-04-16 13:45 35.37070 10.41664 10052 ft 155 kts
2026-04-16 13:45 35.38149 10.41677 10056 ft 155 kts
2026-04-16 13:46 35.39225 10.41691 10052 ft 155 kts
2026-04-16 13:46 35.40294 10.41705 10051 ft 155 kts
2026-04-16 13:46 35.41375 10.41718 10052 ft 155 kts
2026-04-16 13:46 35.42455 10.41731 10053 ft 155 kts
2026-04-16 13:47 35.43539 10.41747 10050 ft 155 kts
2026-04-16 13:47 35.44617 10.41766 10052 ft 155 kts
2026-04-16 13:47 35.45700 10.41787 10051 ft 155 kts
2026-04-16 13:47 35.46782 10.41804 10057 ft 156 kts
2026-04-16 13:48 35.47866 10.41821 10053 ft 156 kts
2026-04-16 13:48 35.48950 10.41840 10055 ft 156 kts
2026-04-16 13:48 35.50035 10.41864 10055 ft 156 kts
2026-04-16 13:48 35.51120 10.41886 10057 ft 156 kts
2026-04-16 13:49 35.52188 10.41907 10052 ft 156 kts
2026-04-16 13:49 35.53271 10.41926 10059 ft 156 kts
2026-04-16 13:49 35.54357 10.41943 10060 ft 156 kts
2026-04-16 13:49 35.55443 10.41965 10058 ft 156 kts
2026-04-16 13:50 35.56532 10.41990 10059 ft 156 kts
2026-04-16 13:50 35.57251 10.42007 10061 ft 156 kts
2026-04-16 13:50 35.58339 10.42033 10059 ft 156 kts
2026-04-16 13:50 35.59425 10.42057 10061 ft 156 kts
2026-04-16 13:51 35.60514 10.42080 10064 ft 157 kts
2026-04-16 13:51 35.61616 10.42102 10068 ft 159 kts
2026-04-16 13:51 35.62727 10.42127 10069 ft 161 kts
2026-04-16 13:51 35.63850 10.42152 10068 ft 161 kts
2026-04-16 13:52 35.64967 10.42179 10066 ft 160 kts
2026-04-16 13:52 35.66080 10.42207 10064 ft 159 kts
2026-04-16 13:52 35.67185 10.42236 10065 ft 158 kts
2026-04-16 13:52 35.68287 10.42265 10063 ft 158 kts
2026-04-16 13:53 35.69385 10.42295 10065 ft 158 kts
2026-04-16 13:53 35.70484 10.42321 10064 ft 158 kts
2026-04-16 13:53 35.71584 10.42346 10065 ft 158 kts
2026-04-16 13:53 35.72682 10.42374 10064 ft 158 kts
2026-04-16 13:54 35.73782 10.42405 10064 ft 157 kts
2026-04-16 13:54 35.74877 10.42432 10066 ft 158 kts
2026-04-16 13:54 35.75960 10.42459 10064 ft 158 kts
2026-04-16 13:54 35.77065 10.42488 10065 ft 158 kts
2026-04-16 13:55 35.78166 10.42515 10065 ft 158 kts
2026-04-16 13:55 35.79266 10.42544 10065 ft 158 kts
2026-04-16 13:55 35.80363 10.42573 10067 ft 157 kts
2026-04-16 13:55 35.81454 10.42602 10070 ft 157 kts
2026-04-16 13:56 35.82554 10.42632 10067 ft 158 kts
2026-04-16 13:56 35.83651 10.42659 10065 ft 158 kts
2026-04-16 13:56 35.84747 10.42688 10072 ft 158 kts
2026-04-16 13:56 35.85847 10.42717 10070 ft 158 kts
2026-04-16 13:57 35.86948 10.42750 10071 ft 158 kts
2026-04-16 13:57 35.88049 10.42785 10072 ft 158 kts
2026-04-16 13:57 35.89147 10.42819 10071 ft 158 kts
2026-04-16 13:58 35.91350 10.42878 10071 ft 158 kts
2026-04-16 13:58 35.92453 10.42906 10071 ft 159 kts
2026-04-16 13:58 35.93546 10.42936 10070 ft 159 kts
2026-04-16 13:58 35.94652 10.42964 10070 ft 159 kts
2026-04-16 13:59 35.95757 10.42991 10071 ft 159 kts
2026-04-16 13:59 35.96865 10.43018 10072 ft 159 kts
2026-04-16 13:59 35.97970 10.43048 10071 ft 159 kts
2026-04-16 13:59 35.99077 10.43081 10072 ft 159 kts
2026-04-16 14:00 36.00184 10.43110 10075 ft 159 kts
2026-04-16 14:00 36.01295 10.43136 10071 ft 160 kts
2026-04-16 14:00 36.02408 10.43162 10071 ft 160 kts
2026-04-16 14:00 36.03519 10.43191 10071 ft 160 kts
2026-04-16 14:01 36.04628 10.43224 10070 ft 160 kts
2026-04-16 14:01 36.05730 10.43256 10074 ft 160 kts
2026-04-16 14:01 36.06848 10.43285 10070 ft 161 kts
2026-04-16 14:01 36.07965 10.43310 10070 ft 160 kts
2026-04-16 14:02 36.09075 10.43334 10071 ft 160 kts
2026-04-16 14:02 36.10185 10.43361 10072 ft 159 kts
2026-04-16 14:02 36.11292 10.43391 10069 ft 159 kts
2026-04-16 14:02 36.12404 10.43422 10068 ft 160 kts
2026-04-16 14:03 36.13517 10.43450 10067 ft 160 kts
2026-04-16 14:03 36.14632 10.43478 10067 ft 160 kts
2026-04-16 14:03 36.15746 10.43508 10071 ft 160 kts
2026-04-16 14:03 36.16859 10.43534 10067 ft 160 kts
2026-04-16 14:04 36.17968 10.43563 10073 ft 160 kts
2026-04-16 14:04 36.19082 10.43590 10078 ft 160 kts
2026-04-16 14:04 36.20196 10.43620 10074 ft 160 kts
2026-04-16 14:04 36.21308 10.43647 10073 ft 160 kts
2026-04-16 14:05 36.22408 10.43673 10076 ft 160 kts
2026-04-16 14:05 36.23484 10.43698 10066 ft 146 kts
2026-04-16 14:05 36.24472 10.43719 10065 ft 138 kts
2026-04-16 14:05 36.25418 10.43664 10051 ft 136 kts 354°
2026-04-16 14:06 36.26376 10.43450 9841 ft 141 kts 353°
2026-04-16 14:06 36.27346 10.43229 9629 ft 141 kts 353°
2026-04-16 14:06 36.28316 10.43011 9416 ft 141 kts 353°
2026-04-16 14:06 36.29280 10.42794 9211 ft 141 kts 353°
2026-04-16 14:07 36.30239 10.42578 9000 ft 140 kts 354°
2026-04-16 14:07 36.31197 10.42359 8799 ft 140 kts 353°
2026-04-16 14:07 36.32150 10.42140 8595 ft 139 kts 353°
2026-04-16 14:07 36.33095 10.41924 8460 ft 140 kts 353°
2026-04-16 14:08 36.34060 10.41708 8314 ft 141 kts 353°
2026-04-16 14:08 36.35023 10.41490 8161 ft 140 kts 353°
2026-04-16 14:08 36.35980 10.41272 8009 ft 140 kts 353°
2026-04-16 14:08 36.36932 10.41057 7856 ft 139 kts 353°
2026-04-16 14:09 36.37880 10.40844 7703 ft 139 kts 353°
2026-04-16 14:09 36.38831 10.40637 7544 ft 137 kts 353°
2026-04-16 14:09 36.39772 10.40428 7411 ft 138 kts 353°
2026-04-16 14:09 36.40719 10.40218 7267 ft 139 kts 353°
2026-04-16 14:10 36.41671 10.40013 7119 ft 138 kts 353°
2026-04-16 14:10 36.42613 10.39804 6975 ft 137 kts 353°
2026-04-16 14:10 36.43556 10.39600 6831 ft 138 kts 353°
2026-04-16 14:10 36.44502 10.39403 6683 ft 137 kts 353°
2026-04-16 14:11 36.45444 10.39210 6547 ft 138 kts 353°
2026-04-16 14:11 36.46410 10.39012 6405 ft 146 kts 353°
2026-04-16 14:11 36.47434 10.38808 6258 ft 149 kts 353°
2026-04-16 14:11 36.48427 10.38608 6105 ft 141 kts 353°
2026-04-16 14:12 36.49353 10.38415 6082 ft 128 kts 353°
2026-04-16 14:12 36.50201 10.38234 6075 ft 121 kts 353°
2026-04-16 14:12 36.50799 10.38107 6079 ft 116 kts 353°
2026-04-16 14:12 36.51660 10.37929 6104 ft 134 kts 353°
2026-04-16 14:13 36.52598 10.37737 6099 ft 136 kts 353°
2026-04-16 14:13 36.53526 10.37545 6099 ft 135 kts 353°
2026-04-16 14:13 36.54449 10.37357 6099 ft 135 kts 353°
2026-04-16 14:13 36.55377 10.37166 6090 ft 134 kts 353°
2026-04-16 14:14 36.56290 10.36976 6097 ft 133 kts 353°
2026-04-16 14:14 36.57205 10.36785 6095 ft 134 kts 353°
2026-04-16 14:14 36.58118 10.36589 6093 ft 135 kts 353°
2026-04-16 14:14 36.59035 10.36389 6097 ft 134 kts 353°
2026-04-16 14:15 36.59963 10.36179 6100 ft 136 kts 353°
2026-04-16 14:15 36.60898 10.35971 6101 ft 137 kts 353°
2026-04-16 14:15 36.61837 10.35775 6087 ft 138 kts 353°
2026-04-16 14:15 36.62770 10.35580 6033 ft 133 kts 353°
2026-04-16 14:16 36.63674 10.35397 5978 ft 130 kts 353°
2026-04-16 14:16 36.64573 10.35216 5931 ft 131 kts 353°
2026-04-16 14:16 36.65466 10.35038 5808 ft 127 kts 353°
2026-04-16 14:16 36.66331 10.34866 5652 ft 125 kts 353°
2026-04-16 14:17 36.67171 10.34696 5504 ft 123 kts 353°
2026-04-16 14:17 36.68012 10.34525 5347 ft 122 kts 353°
2026-04-16 14:17 36.68842 10.34342 5201 ft 121 kts 353°
2026-04-16 14:17 36.69674 10.34160 5046 ft 121 kts 353°
2026-04-16 14:18 36.70502 10.33983 4896 ft 120 kts 353°
2026-04-16 14:18 36.71191 10.33839 4766 ft 115 kts 353°
2026-04-16 14:18 36.72000 10.33663 4609 ft 120 kts 353°
2026-04-16 14:18 36.72849 10.33486 4456 ft 125 kts 353°
2026-04-16 14:19 36.73705 10.33325 4250 ft 123 kts 353°
2026-04-16 14:19 36.74542 10.33163 4021 ft 121 kts 353°
2026-04-16 14:19 36.75369 10.32999 3795 ft 120 kts 353°
2026-04-16 14:19 36.76176 10.32848 3571 ft 118 kts 353°
2026-04-16 14:20 36.76971 10.32710 3218 ft 112 kts 353°
2026-04-16 14:20 36.77741 10.32587 2817 ft 105 kts 353°
2026-04-16 14:20 36.78447 10.32481 2421 ft 103 kts 353°
2026-04-16 14:20 36.79155 10.32385 2090 ft 99 kts 353°
2026-04-16 14:21 36.79815 10.32301 1847 ft 94 kts 353°
2026-04-16 14:21 36.80465 10.32207 1601 ft 95 kts 352°
2026-04-16 14:21 36.81121 10.32018 1386 ft 98 kts 338°
2026-04-16 14:21 36.81699 10.31563 1244 ft 97 kts 323°
2026-04-16 14:22 36.82164 10.30941 1104 ft 98 kts 311°
2026-04-16 14:22 36.82525 10.30275 1122 ft 93 kts 304°
2026-04-16 14:22 36.82642 10.29976 1079 ft 96 kts 298°
2026-04-16 14:22 36.82872 10.29223 902 ft 83 kts 297°
2026-04-16 14:23 36.83044 10.28569 648 ft 76 kts 300°
2026-04-16 14:23 36.83237 10.28007 511 ft 65 kts 298°
2026-04-16 14:23 36.83372 10.27478 385 ft 61 kts 292°
2026-04-16 14:23 36.83500 10.26976 284 ft 61 kts 304°
2026-04-16 14:24 36.83710 10.26544 249 ft 60 kts 304°
2026-04-16 14:24 36.83924 10.26054 227 ft 72 kts 301°
2026-04-16 14:24 36.84137 10.25527 192 ft 64 kts 300°
2026-04-16 14:24 36.84322 10.25016 145 ft 67 kts 299°
2026-04-16 14:25 36.84514 10.24496 70 ft 65 kts 298°
2026-04-16 14:25 36.84683 10.24014 32 ft 59 kts 298°
2026-04-16 14:25 36.84840 10.23535 28 ft 58 kts 300°
2026-04-16 14:25 36.84943 10.23229 23 ft 21 kts 288°
2026-04-16 14:26 36.84998 10.23063 24 ft 24 kts 291°
2026-04-16 14:26 36.85048 10.22908 26 ft 17 kts 291°
2026-04-16 14:26 36.85097 10.22756 29 ft 20 kts 294°
2026-04-16 14:26 36.85149 10.22593 30 ft 20 kts 290°
2026-04-16 14:27 36.85126 10.22453 29 ft 17 kts 228°
2026-04-16 14:27 36.85020 10.22400 26 ft 17 kts 194°
2026-04-16 14:27 36.84912 10.22371 25 ft 9 kts 196°
2026-04-16 14:27 36.84871 10.22357 25 ft 6 kts 191°
2026-04-16 14:28 36.84762 10.22323 25 ft 27 kts 189°
2026-04-16 14:28 36.84510 10.22243 25 ft 45 kts 210°
2026-04-16 14:28 36.84465 10.22035 25 ft 20 kts 235°
2026-04-16 14:28 36.84373 10.21957 25 ft 15 kts 192°
2026-04-16 14:29 36.84275 10.21939 25 ft 14 kts 187°
2026-04-16 14:29 36.84183 10.21915 25 ft 13 kts 192°
2026-04-16 14:29 36.84094 10.21892 25 ft 13 kts 193°
2026-04-16 14:29 36.84050 10.21848 25 ft 5 kts 283°
2026-04-16 14:30 36.84056 10.21815 25 ft 6 kts 285°
2026-04-16 14:30 36.84087 10.21762 25 ft 6 kts 333°
2026-04-16 14:30 36.84111 10.21720 25 ft 7 kts 278°
2026-04-16 14:30 36.84120 10.21657 25 ft 8 kts 280°
2026-04-16 14:31 36.84129 10.21610 25 ft 0 kts 338°